Date String (YYYY-MM-DD hh:mm:ss) UTC,Instrument flags,Ambient pressure (hPa),Sample flow (lpm),Bypass flow (lpm),Sample temperature (°C),Ambient temperature (°C),ASC tube jacket temperature (°C),LED temperature (°C),Box temperature (°C),Sample RH (%),Span deviation,Mass concentration (μg/m³),Mass concentration (μg/m³),Mass concentration (μg/m³)
DateTimeUTC,F1_M11,P_M11,Q1_M11,Q2_M11,T1_M11,T2_M11,T3_M11,T4_M11,T5_M11,U1_M11,ZSPAN_M11,X0_M11,X2_M11,X1_M11
2022-05-13 16:00:00,,0826.8,5.01,0.00,27.6,26.4,00.0,36.5,29.3,08.0,0000.0,0006.85,0003.18,0001.92
2022-05-13 16:01:00,,0826.7,4.98,0.00,27.6,26.4,00.0,36.5,29.3,08.0,0000.0,0006.42,0003.16,0001.91
2022-05-13 16:02:00,,0826.8,5.01,0.00,27.6,26.4,00.0,36.5,29.3,08.0,0000.0,0006.24,0003.14,0001.90
2022-05-13 16:03:00,,0826.8,4.99,0.00,27.6,26.4,00.0,36.5,29.4,08.1,0000.0,0006.14,0003.13,0001.89
2022-05-13 16:04:00,,0826.8,5.00,0.00,27.5,26.5,00.0,36.5,29.3,08.1,0000.0,0005.97,0003.09,0001.88
2022-05-13 16:05:00,,0826.8,5.01,0.00,27.5,26.4,00.0,36.5,29.3,08.2,0000.0,0005.99,0002.99,0001.87
2022-05-13 16:06:00,,0826.8,4.98,0.00,27.5,26.5,00.0,36.5,29.3,08.2,0000.0,0006.62,0002.91,0001.86
2022-05-13 16:07:00,,0826.8,5.01,0.00,27.5,26.5,00.0,36.5,29.2,08.2,0000.0,0006.65,0002.84,0001.86
2022-05-13 16:08:00,,0826.7,4.99,0.00,27.5,26.5,00.0,36.5,29.2,08.2,0000.0,0006.41,0002.77,0001.86
2022-05-13 16:09:00,,0826.6,5.00,0.00,27.5,26.5,00.0,36.5,29.2,08.1,0000.0,0006.50,0002.80,0001.87
2022-05-13 16:10:00,,0826.7,5.00,0.00,27.5,26.5,00.0,36.5,29.3,07.8,0000.0,0006.46,0002.78,0001.87
2022-05-13 16:11:00,,0826.7,4.99,0.00,27.5,26.5,00.0,36.5,29.3,07.7,0000.0,0006.27,0002.75,0001.85
2022-05-13 16:12:00,,0826.7,5.01,0.00,27.6,26.5,00.0,36.5,29.3,08.0,0000.0,0006.15,0002.68,0001.84
2022-05-13 16:13:00,,0826.7,5.00,0.00,27.6,26.5,00.0,36.5,29.3,08.2,0000.0,0006.41,0002.73,0001.84
2022-05-13 16:14:00,,0826.7,5.00,0.00,27.6,26.6,00.0,36.5,29.3,08.4,0000.0,0006.47,0002.71,0001.84
2022-05-13 16:15:00,,0826.7,4.99,0.00,27.6,26.6,00.0,36.5,29.4,07.9,0000.0,0006.51,0002.73,0001.85
2022-05-13 16:16:00,,0826.7,5.01,0.00,27.6,26.6,00.0,36.5,29.4,08.2,0000.0,0006.14,0002.77,0001.85
2022-05-13 16:17:00,,0826.7,5.01,0.00,27.6,26.6,00.0,36.5,29.3,08.0,0000.0,0005.33,0002.79,0001.84
2022-05-13 16:18:00,,0826.7,4.99,0.00,27.6,26.6,00.0,36.5,29.3,08.0,0000.0,0005.03,0002.79,0001.83
2022-05-13 16:19:00,,0826.7,5.00,0.00,27.6,26.6,00.0,36.5,29.3,07.7,0000.0,0005.05,0002.81,0001.83
2022-05-13 16:20:00,,0826.7,5.00,0.00,27.6,26.6,00.0,36.5,29.4,07.9,0000.0,0004.93,0002.77,0001.83
2022-05-13 16:21:00,,0826.7,5.01,0.00,27.5,26.6,00.0,36.5,29.3,07.9,0000.0,0005.20,0002.87,0001.86
2022-05-13 16:22:00,,0826.8,5.00,0.00,27.5,26.6,00.0,36.5,29.3,08.2,0000.0,0005.23,0002.88,0001.86
2022-05-13 16:23:00,,0826.8,4.99,0.00,27.5,26.6,00.0,36.5,29.2,07.8,0000.0,0005.23,0002.92,0001.87
2022-05-13 16:24:00,,0826.7,5.00,0.00,27.5,26.6,00.0,36.5,29.3,07.6,0000.0,0005.09,0002.83,0001.85
2022-05-13 16:25:00,,0826.7,5.01,0.00,27.4,26.5,00.0,36.5,29.2,08.1,0000.0,0005.14,0002.81,0001.84
2022-05-13 16:26:00,,0826.9,4.99,0.00,27.4,26.5,00.0,36.5,29.2,08.3,0000.0,0005.20,0002.83,0001.85
2022-05-13 16:27:00,,0826.8,5.01,0.00,27.4,26.5,00.0,36.5,29.1,08.1,0000.0,0005.42,0002.87,0001.86
2022-05-13 16:28:00,,0826.7,5.00,0.00,27.4,26.5,00.0,36.5,29.1,08.0,0000.0,0005.99,0002.96,0001.86
2022-05-13 16:29:00,,0826.8,5.00,0.00,27.5,26.6,00.0,36.5,29.2,07.5,0000.0,0006.25,0003.01,0001.86
2022-05-13 16:30:00,,0826.8,4.99,0.00,27.5,26.6,00.0,36.5,29.2,07.3,0000.0,0006.27,0003.02,0001.85
2022-05-13 16:31:00,,0826.7,5.00,0.00,27.5,26.6,00.0,36.4,29.2,07.9,0000.0,0006.41,0003.07,0001.85
2022-05-13 16:32:00,,0826.7,5.00,0.00,27.5,26.6,00.0,36.5,29.3,07.5,0000.0,0006.26,0003.01,0001.84
2022-05-13 16:33:00,,0826.8,5.00,0.00,27.5,26.6,00.0,36.5,29.3,07.4,0000.0,0006.30,0003.01,0001.84
2022-05-13 16:34:00,,0826.7,5.00,0.00,27.5,26.6,00.0,36.5,29.2,07.2,0000.0,0006.29,0003.00,0001.83
2022-05-13 16:35:00,,0826.8,5.01,0.00,27.5,26.6,00.0,36.5,29.2,07.1,0000.0,0006.24,0003.02,0001.83
2022-05-13 16:36:00,,0826.8,4.99,0.00,27.5,26.6,00.0,36.5,29.3,07.4,0000.0,0006.07,0003.03,0001.83
2022-05-13 16:37:00,,0826.7,5.01,0.00,27.5,26.6,00.0,36.5,29.3,07.7,0000.0,0006.26,0002.99,0001.80
2022-05-13 16:38:00,,0826.7,5.00,0.00,27.5,26.6,00.0,36.5,29.3,07.5,0000.0,0006.00,0002.90,0001.79
2022-05-13 16:39:00,,0826.7,5.00,0.00,27.6,26.6,00.0,36.5,29.2,07.9,0000.0,0006.47,0002.81,0001.79
2022-05-13 16:40:00,,0826.8,5.00,0.00,27.6,26.7,00.0,36.5,29.3,07.9,0000.0,0006.80,0002.79,0001.79
2022-05-13 16:41:00,,0826.8,5.01,0.00,27.6,26.7,00.0,36.5,29.3,07.8,0000.0,0008.08,0002.80,0001.80
2022-05-13 16:42:00,,0826.8,4.99,0.00,27.6,26.7,00.0,36.5,29.3,08.1,0000.0,0008.18,0002.80,0001.81
2022-05-13 16:43:00,,0826.7,5.00,0.00,27.6,26.7,00.0,36.5,29.3,07.7,0000.0,0008.29,0002.83,0001.81
2022-05-13 16:44:00,,0826.8,5.01,0.00,27.6,26.7,00.0,36.5,29.4,07.9,0000.0,0008.35,0002.89,0001.81
2022-05-13 16:45:00,,0827.0,4.99,0.00,27.6,26.7,00.0,36.5,29.4,07.7,0000.0,0008.47,0002.97,0001.83
2022-05-13 16:46:00,,0826.9,5.01,0.00,27.6,26.7,00.0,36.5,29.4,08.0,0000.0,0008.45,0002.98,0001.85
2022-05-13 16:47:00,,0826.8,5.00,0.00,27.6,26.7,00.0,36.6,29.4,07.5,0000.0,0008.44,0003.02,0001.86
2022-05-13 16:48:00,,0826.8,5.00,0.00,27.7,26.8,00.0,36.6,29.4,07.5,0000.0,0008.26,0003.00,0001.85
2022-05-13 16:49:00,,0826.8,5.01,0.00,27.7,26.8,00.0,36.6,29.4,07.7,0000.0,0008.31,0003.03,0001.85
2022-05-13 16:50:00,,0826.8,5.00,0.00,27.7,26.8,00.0,36.6,29.4,07.5,0000.0,0007.69,0003.02,0001.84
2022-05-13 16:51:00,,0827.0,5.00,0.00,27.7,26.8,00.0,36.6,29.4,08.0,0000.0,0007.81,0003.04,0001.83
2022-05-13 16:52:00,,0826.9,4.99,0.00,27.7,26.8,00.0,36.6,29.5,07.3,0000.0,0006.54,0003.06,0001.82
2022-05-13 16:53:00,,0826.8,5.01,0.00,27.7,26.8,00.0,36.6,29.5,07.4,0000.0,0006.42,0003.11,0001.81
2022-05-13 16:54:00,,0826.9,4.99,0.00,27.8,26.8,00.0,36.6,29.5,07.7,0000.0,0006.28,0003.12,0001.82
2022-05-13 16:55:00,,0826.9,5.01,0.00,27.8,26.9,00.0,36.6,29.6,07.7,0000.0,0006.24,0003.11,0001.83
2022-05-13 16:56:00,,0826.8,5.01,0.00,27.8,26.9,00.0,36.7,29.6,07.7,0000.0,0006.35,0003.12,0001.82
2022-05-13 16:57:00,,0826.8,4.99,0.00,27.8,26.9,00.0,36.7,29.6,07.2,0000.0,0006.68,0003.16,0001.80
2022-05-13 16:58:00,,0826.8,5.01,0.00,27.8,26.9,00.0,36.7,29.6,07.6,0000.0,0006.81,0003.16,0001.79
2022-05-13 16:59:00,,0826.9,4.99,0.00,27.8,26.9,00.0,36.7,29.5,07.5,0000.0,0007.03,0003.15,0001.79
